Theta_e
313 313 314 315 315 316 316 317 318 318 317 317 318 318 319 318 318 318 318 319 319 319 319 319 318 318 318 318 319 317 312 305 303 301 300 301 308 314 314 314 314 314 311 305 303 303 301 303 303 305 301 301 301 301 303 305 306 311 304 300 299 301 301 307 306 308 307 303 304 305 306 304 301 305 305 307 304 301 301 299 299 300 298 298 299 300 301 301
312 313 314 314 315 316 316 317 317 317 317 318 318 318 318 318 319 318 318 318 319 319 319 319 319 318 318 318 317 311 308 305 300 300 299 307 312 313 314 314 315 315 309 303 301 301 301 300 302 304 299 295 302 300 303 303 305 305 303 302 298 303 304 303 309 308 306 304 306 306 308 306 303 304 304 299 297 301 299 298 298 297 298 298 298 298 298 298
312 313 313 314 315 315 316 316 316 317 317 317 318 318 318 318 319 319 318 318 318 319 318 318 319 319 318 318 314 312 308 302 301 297 300 309 313 313 314 315 315 314 306 302 303 302 301 301 303 303 299 296 298 296 302 302 305 305 305 299 302 304 305 309 310 309 310 306 302 300 300 301 302 302 305 298 295 295 290 291 294 292 293 294 295 296 296 296
312 312 313 314 314 314 315 315 316 316 317 317 318 318 318 319 319 319 318 318 318 319 318 318 319 318 318 317 314 311 304 300 295 297 304 311 312 313 313 314 316 310 307 306 305 304 304 304 303 302 297 295 295 299 298 302 304 304 303 300 302 306 304 305 308 307 306 306 302 300 300 297 297 302 304 301 298 293 291 291 290 290 291 293 294 294 295 295
312 312 313 313 313 314 315 315 315 316 317 318 318 318 318 320 319 318 317 318 320 319 318 318 319 318 317 313 313 308 300 291 293 299 305 311 312 312 312 314 314 308 307 305 306 304 303 301 302 300 297 292 297 298 299 301 303 304 300 303 304 305 301 305 305 304 303 304 302 301 298 296 299 297 296 299 296 290 290 291 292 292 292 292 292 294 294 294
312 312 312 313 313 314 314 314 315 316 316 317 318 318 319 319 319 317 317 319 319 319 319 319 319 317 316 309 307 305 298 282 297 299 309 310 311 312 312 313 314 307 306 303 301 301 301 301 301 296 293 294 294 293 297 299 300 298 300 302 304 305 300 301 302 302 303 303 300 297 297 297 294 292 294 293 291 291 294 294 293 293 294 294 294 294 294 293
312 312 312 312 313 313 314 314 315 315 316 317 318 319 319 319 319 317 317 319 319 318 319 319 318 316 315 308 306 302 296 294 298 303 307 310 310 309 311 308 310 305 304 300 299 299 299 300 300 295 294 294 293 296 296 300 304 303 297 302 301 303 300 302 300 301 301 300 298 300 301 298 296 290 293 290 292 293 294 294 294 294 294 294 293 293 293 293
311 312 312 312 312 313 313 313 314 315 316 317 318 319 319 319 319 319 317 319 317 317 317 317 316 312 313 305 301 296 295 293 299 303 305 308 304 303 307 305 304 305 302 300 299 298 301 298 296 297 293 290 293 297 300 301 303 298 296 298 298 299 299 299 299 298 298 298 299 299 295 293 294 293 293 289 291 293 293 295 294 293 293 292 292 292 292 293
312 311 312 312 312 312 313 313 314 315 316 317 318 318 319 319 318 319 317 318 316 317 316 316 314 310 309 306 298 294 291 299 300 301 302 301 302 303 304 303 304 302 303 303 301 301 300 298 298 298 290 293 297 298 300 299 295 299 297 298 298 297 298 298 298 298 298 298 298 295 293 295 295 297 291 292 292 294 294 293 294 293 292 292 292 292 292 293
311 311 312 312 312 312 312 313 314 314 315 316 317 318 318 317 318 318 317 318 315 317 317 316 314 308 307 302 298 290 295 301 302 301 301 301 305 304 305 303 305 303 300 301 302 300 298 300 299 300 299 297 298 297 297 299 296 300 298 298 296 296 296 298 297 298 299 298 299 295 293 294 297 296 287 292 294 294 293 292 293 293 292 291 291 292 292 292
311 311 311 311 311 312 312 313 313 314 315 316 317 317 317 317 317 318 317 317 314 315 315 313 314 312 303 302 293 289 301 300 303 301 301 305 306 304 303 304 303 302 302 302 300 303 302 301 301 301 297 295 298 296 299 298 300 299 297 296 295 295 295 297 298 297 299 295 298 296 293 294 294 292 288 290 293 294 292 292 292 291 291 291 291 291 292 293
311 311 311 311 311 311 312 312 313 314 315 316 316 316 315 316 316 317 317 316 315 314 313 311 312 308 303 298 293 292 303 300 302 301 302 306 304 303 303 302 302 304 303 298 302 303 303 303 303 298 292 302 294 299 297 301 299 298 299 292 293 295 294 296 295 297 299 295 300 301 297 289 289 285 290 292 293 293 292 292 292 291 290 291 291 292 291 292
310 310 310 310 310 310 311 312 313 314 315 315 315 314 314 315 316 316 317 312 314 311 309 311 308 308 302 293 295 302 305 302 301 300 301 303 305 306 306 305 304 303 304 302 302 304 304 304 303 300 299 299 298 294 299 302 300 301 299 294 292 292 291 293 297 298 297 297 299 298 292 287 287 289 291 293 292 292 291 290 290 292 291 291 291 291 291 292
310 310 310 310 310 310 310 312 313 313 314 315 314 313 313 314 316 317 312 309 312 313 309 307 310 305 299 293 299 301 304 304 301 299 299 303 304 304 305 306 306 307 308 307 304 304 305 305 305 302 303 298 295 303 299 300 302 295 297 298 292 290 287 292 293 294 294 297 299 298 288 285 286 288 291 292 292 291 289 289 290 291 291 291 292 291 290 291
309 310 309 309 310 310 310 311 312 313 314 314 313 313 313 313 317 315 309 310 311 313 310 307 307 302 294 294 301 305 307 308 299 297 300 299 300 302 302 304 304 305 306 307 304 303 305 305 304 301 297 301 301 298 295 296 298 298 293 290 294 290 288 291 294 293 292 295 300 298 287 284 285 287 290 292 291 290 289 289 290 289 290 291 291 291 291 291
310 310 309 309 309 310 310 311 312 313 314 313 312 312 312 315 313 310 309 309 309 308 310 303 301 300 293 289 296 307 301 295 294 298 300 302 301 301 302 302 303 304 306 304 306 303 303 305 299 298 298 300 298 296 293 293 295 297 294 291 289 290 287 290 292 293 294 294 297 297 286 285 284 288 290 291 291 290 288 289 289 289 289 290 291 290 291 291
310 309 309 309 309 309 310 311 312 313 313 312 311 311 313 314 313 309 307 308 305 306 303 296 299 300 289 297 304 294 292 295 298 298 299 303 304 303 303 301 301 302 303 304 304 303 302 300 298 298 301 297 296 295 289 288 288 291 296 291 292 288 288 287 291 292 293 293 289 294 288 286 287 288 288 289 289 289 288 288 289 289 289 290 291 291 291 291
309 309 309 309 309 309 310 311 312 313 311 310 309 309 314 311 310 307 304 307 302 304 300 305 301 296 291 300 288 289 295 294 296 295 299 301 302 304 303 300 300 300 301 299 302 298 299 296 298 292 292 293 295 292 287 283 287 288 290 288 288 289 290 288 287 288 292 292 289 288 287 285 286 287 287 288 289 288 288 289 289 289 289 290 290 290 290 290
309 309 308 309 309 309 310 311 312 311 309 307 309 311 311 310 307 308 301 304 298 293 289 288 289 282 281 289 295 294 295 296 295 296 296 298 300 302 302 302 299 298 294 294 294 296 297 294 295 292 287 289 291 289 291 290 294 292 292 290 289 285 284 284 286 289 292 290 289 289 285 285 285 286 286 287 288 288 287 288 289 288 289 289 289 289 289 289
309 308 309 309 309 309 310 311 312 309 307 303 303 303 302 297 296 294 297 297 291 291 290 291 293 291 292 292 291 294 299 297 294 295 297 299 299 299 298 298 298 298 293 289 289 293 295 288 286 287 288 287 288 285 288 289 296 293 292 290 286 284 284 286 287 289 292 288 285 287 287 285 285 285 286 287 288 288 288 288 288 287 288 288 289 288 289 289
309 309 309 309 309 310 311 311 311 307 305 300 302 298 291 293 288 286 288 290 292 292 292 293 293 289 289 293 294 292 290 293 297 295 296 300 298 297 294 296 293 289 291 290 291 293 294 287 284 284 284 285 284 285 288 293 293 291 289 286 285 285 282 286 287 289 292 287 283 286 286 285 284 285 286 287 288 287 287 287 288 287 288 289 288 288 288 289
308 309 309 310 310 310 311 311 308 305 303 301 303 297 294 295 296 297 296 286 289 293 291 293 291 291 296 293 294 293 292 290 293 294 298 300 296 293 293 294 291 287 290 290 291 290 287 284 285 285 285 285 285 287 293 291 289 290 288 286 284 283 285 286 287 289 290 288 283 286 284 284 284 285 286 286 286 287 287 287 287 287 288 288 288 288 288 288
308 309 309 310 310 311 310 309 305 302 301 302 297 297 297 299 298 296 297 292 288 289 290 290 290 291 292 294 293 295 290 286 285 292 293 298 294 291 292 291 289 289 291 291 286 286 283 284 285 286 284 288 287 291 292 289 290 289 287 286 282 286 286 282 285 287 288 289 284 286 285 284 285 286 287 287 286 286 287 286 286 287 287 287 286 287 287 286
308 308 309 309 310 311 309 307 303 302 296 296 297 296 297 297 297 296 294 287 285 289 291 291 292 291 290 288 293 290 290 289 290 287 296 296 290 289 289 291 289 289 287 288 287 285 283 286 286 287 287 291 288 290 290 290 288 289 289 287 286 286 286 285 283 287 288 288 289 288 287 286 286 286 287 288 288 286 287 286 286 287 288 288 288 287 287 286
308 308 308 310 310 310 308 305 299 296 294 297 295 297 295 295 296 296 292 286 288 287 293 293 294 293 292 297 297 290 289 293 291 293 295 294 290 289 290 290 290 285 287 289 290 287 285 287 288 286 291 291 289 287 288 290 287 287 287 287 288 287 285 286 287 288 286 284 288 287 283 283 285 286 288 289 288 287 288 287 287 287 286 287 286 286 288 289
308 308 309 309 310 308 306 299 295 296 294 293 296 296 294 294 296 296 290 281 278 283 292 284 295 288 299 290 292 288 290 288 294 294 296 295 295 293 292 289 292 285 287 288 287 286 284 290 287 288 289 287 289 288 286 287 288 287 284 287 288 288 288 287 287 291 285 281 286 286 284 281 286 286 289 290 289 289 289 288 287 287 286 286 286 287 287 288
308 308 309 310 309 305 300 294 295 295 295 293 296 294 294 295 295 293 288 278 276 284 282 290 292 289 297 290 290 293 282 284 293 297 294 296 292 297 290 288 291 290 288 289 288 282 286 287 287 290 288 288 288 287 289 287 290 284 287 288 287 289 287 287 288 290 286 288 285 286 286 286 283 288 287 287 286 287 288 289 288 288 288 287 287 288 289 289
308 308 309 309 306 301 297 297 297 295 293 293 294 294 293 294 294 292 285 268 267 289 281 286 288 299 292 290 293 287 285 288 286 291 295 295 297 296 293 289 288 288 289 288 277 284 285 285 285 286 287 287 285 284 287 288 288 286 288 289 287 286 289 289 290 288 288 288 283 285 286 286 285 285 285 286 286 288 290 291 292 290 289 289 289 289 289 289
308 308 308 309 304 301 300 297 297 294 294 292 293 294 294 295 292 289 278 269 277 281 300 285 299 293 289 292 289 288 286 287 283 287 293 298 295 294 290 291 291 289 290 289 282 285 286 286 286 285 286 283 286 287 288 288 286 288 290 290 287 289 290 290 290 288 288 287 282 282 283 284 285 287 287 287 287 289 292 294 294 292 291 290 289 289 289 290
308 308 309 308 303 299 299 298 296 293 292 292 294 295 295 291 289 281 272 263 279 276 286 287 288 282 287 284 286 287 284 285 286 287 291 287 290 293 291 291 292 290 287 289 286 286 287 290 289 285 282 287 288 288 291 290 290 292 292 289 289 292 291 291 292 290 287 282 281 281 282 282 283 288 289 287 289 292 293 293 293 292 292 290 290 290 290 289
308 308 308 306 297 296 296 294 294 292 292 293 295 295 292 289 280 273 263 273 287 282 288 286 282 288 282 279 280 285 285 284 283 286 285 289 287 288 287 289 292 290 288 286 284 285 286 286 285 288 290 290 293 290 293 293 293 292 290 290 290 288 291 289 287 289 282 280 280 281 280 282 280 285 290 293 289 290 293 293 292 291 292 291 290 290 290 290
308 308 305 304 300 298 294 293 294 294 294 295 295 291 290 280 280 272 269 287 274 279 278 279 284 282 282 281 280 281 280 284 284 284 281 282 282 281 281 279 279 282 279 282 280 286 283 283 286 288 290 287 287 289 290 292 293 293 291 291 284 281 283 279 283 279 280 279 279 281 281 281 283 288 288 291 292 291 291 292 293 293 292 292 290 290 290 291
308 307 303 301 300 296 295 295 295 295 296 295 293 291 285 278 266 274 273 276 272 279 279 282 281 281 280 281 280 281 283 278 283 283 284 284 284 283 284 281 282 282 278 282 282 281 281 287 285 285 290 290 287 286 286 287 290 291 290 288 283 278 277 274 275 277 278 280 281 280 282 281 287 289 290 289 290 290 291 292 293 292 293 292 291 291 291 292
307 306 301 298 295 295 296 296 295 296 295 294 291 289 283 275 269 280 273 276 274 278 279 279 281 280 280 279 278 281 280 281 282 281 284 281 281 279 282 283 282 282 284 282 279 280 278 279 281 282 284 286 286 285 285 288 288 286 287 287 286 283 279 274 276 275 278 279 279 280 279 282 283 285 288 289 288 288 288 289 291 290 290 291 291 291 291 291
302 298 299 296 295 294 296 295 296 297 293 292 290 283 275 269 270 271 275 275 276 279 280 282 277 277 280 280 279 282 281 280 282 281 280 280 277 278 277 279 282 282 280 280 280 280 275 276 281 284 283 284 284 285 286 286 286 286 286 288 286 282 284 280 277 279 277 278 278 278 281 284 285 286 287 287 288 287 288 288 289 290 291 291 290 290 290 291
302 299 296 297 296 292 294 295 295 294 292 293 285 278 275 274 274 277 278 282 281 278 279 280 275 277 277 280 279 280 284 280 281 281 278 279 279 278 280 280 280 281 279 280 280 278 278 275 281 282 283 282 282 285 282 282 282 284 286 283 282 283 282 275 275 274 274 279 279 280 281 285 288 286 286 286 286 287 287 288 288 290 291 291 291 291 291 291
300 299 296 296 294 293 293 295 296 293 294 291 283 275 275 276 278 280 282 280 280 281 275 277 276 277 273 273 278 279 280 282 280 280 278 278 278 279 279 280 281 282 280 281 279 281 279 276 280 280 280 283 282 283 284 284 284 286 282 282 283 282 281 282 278 275 277 278 276 277 279 282 282 281 286 286 286 287 287 288 289 289 291 290 292 293 293 293
299 300 297 294 292 293 293 294 293 294 294 287 279 278 272 278 280 280 281 281 281 279 277 278 278 279 275 275 277 277 279 279 278 278 274 280 276 282 280 280 283 281 282 279 281 281 282 277 280 280 281 283 284 283 285 288 288 287 284 285 282 280 279 280 280 272 272 272 274 277 275 277 280 283 285 284 286 286 287 288 288 289 290 291 292 293 294 294
294 297 297 293 294 294 295 294 294 297 289 281 278 280 277 276 280 279 279 280 281 279 278 277 276 278 278 277 277 278 276 276 278 274 275 277 275 280 280 280 280 284 283 282 282 282 280 279 278 281 281 283 284 285 280 282 286 285 286 283 280 282 280 280 276 277 278 271 270 274 276 277 281 283 284 285 286 286 286 287 288 290 291 292 292 293 294 294
296 299 292 292 294 295 293 293 295 289 286 280 278 276 274 273 281 280 279 280 279 280 278 279 277 278 278 276 277 277 277 276 278 276 278 278 277 281 279 283 278 281 283 282 280 278 280 280 277 281 283 281 280 279 279 279 280 282 283 281 280 278 278 278 276 276 277 274 273 274 273 278 282 285 284 285 286 286 286 287 289 289 290 291 292 292 293 294
289 295 291 295 294 293 296 292 282 279 277 274 275 275 272 279 282 281 279 279 281 281 281 279 280 278 277 278 277 277 276 278 277 277 277 278 278 276 280 280 281 279 282 282 282 280 281 281 277 278 280 278 277 280 278 279 279 279 279 279 279 279 277 275 273 274 271 276 270 273 273 280 283 283 285 286 287 287 287 287 288 289 290 290 291 292 292 293
299 287 292 294 294 293 296 286 278 275 281 279 280 279 281 285 281 281 280 280 280 282 280 281 280 279 278 277 278 277 277 277 276 276 277 277 279 279 280 281 280 279 280 281 280 280 279 281 280 275 276 278 279 278 278 278 279 279 279 279 277 276 277 278 274 273 272 271 270 272 274 278 284 284 285 286 287 287 287 287 287 289 290 290 291 291 292 292
292 292 294 295 292 295 292 281 282 281 279 279 280 281 282 281 279 280 280 281 280 281 281 280 279 279 278 279 277 276 278 277 277 277 278 278 279 280 280 281 280 280 281 281 281 282 282 278 275 274 276 278 279 278 276 273 278 279 279 278 278 280 279 279 280 279 277 269 274 276 273 279 285 285 286 286 286 286 286 286 287 288 289 290 290 291 291 291
291 292 299 297 295 296 295 283 280 277 279 278 278 279 279 281 280 282 280 279 280 281 280 280 280 279 279 279 279 277 278 275 277 278 278 278 279 280 280 281 282 282 282 281 280 280 277 275 278 272 274 276 276 277 278 275 277 278 279 279 276 276 275 273 272 271 277 273 275 276 273 279 284 284 284 283 283 283 285 287 286 287 289 290 289 289 290 289
289 288 290 292 293 295 291 283 284 280 280 277 277 279 279 279 280 282 282 280 280 280 279 280 280 281 279 278 277 278 279 278 276 278 278 278 280 280 279 279 281 281 283 285 282 284 279 274 275 275 271 269 269 272 275 276 277 278 277 277 277 276 275 278 277 276 275 273 273 274 278 282 283 283 284 283 283 284 286 286 286 286 286 287 288 290 289 289
293 286 288 291 290 287 282 280 282 282 277 275 277 277 278 280 281 280 282 281 281 279 280 280 278 280 278 278 278 276 278 279 278 278 279 279 280 281 281 280 279 280 284 282 280 280 273 272 271 272 276 278 277 276 276 278 277 276 276 277 277 276 276 275 279 276 278 272 273 278 279 280 282 283 282 283 284 283 285 286 285 286 286 287 287 288 289 289
290 288 283 286 290 286 283 284 280 283 283 283 280 279 277 279 280 280 282 281 283 281 279 279 275 278 279 280 277 278 276 278 278 279 277 278 279 280 280 279 279 281 283 283 280 277 273 277 271 268 268 272 272 273 274 277 276 275 276 277 277 277 275 275 275 277 278 276 277 279 275 278 282 283 283 284 284 284 285 285 286 287 287 288 287 287 287 287
290 283 281 281 285 285 286 284 282 281 280 283 279 279 280 280 280 281 282 282 282 281 280 278 278 277 278 278 279 278 278 275 276 277 278 278 279 280 281 279 280 280 282 280 279 280 279 277 270 271 271 271 271 272 274 275 275 275 275 276 276 277 275 273 276 276 277 277 279 277 276 278 282 284 285 285 285 285 285 286 286 285 285 286 286 287 287 288
287 284 284 283 285 278 281 281 282 282 281 281 280 279 278 280 280 280 279 280 279 280 280 280 278 278 277 276 278 280 276 277 277 275 276 278 276 277 280 280 279 281 282 279 278 274 279 275 270 269 271 270 271 273 273 274 274 274 275 276 276 276 276 277 277 275 275 276 275 275 275 277 281 282 285 286 286 285 285 285 285 285 287 288 287 287 287 288
287 288 285 283 283 278 277 282 281 283 283 284 281 279 280 281 281 280 280 278 281 279 281 280 278 278 277 274 276 280 278 278 278 278 278 277 277 278 277 277 278 281 281 277 276 272 278 276 274 269 272 271 272 273 273 273 273 272 276 276 276 275 276 276 275 274 272 273 274 274 275 276 283 285 285 286 285 285 284 284 286 287 287 286 286 287 288 288
289 288 290 288 286 284 284 281 283 283 282 282 282 278 280 279 281 282 281 281 279 279 280 280 280 278 277 278 279 278 280 280 279 279 279 277 278 278 278 277 278 277 278 277 274 275 279 273 266 269 277 274 271 271 271 270 270 269 270 273 273 273 273 275 274 278 277 278 275 276 276 279 286 284 284 285 285 285 285 286 287 288 288 287 286 287 288 288
287 287 288 291 284 283 283 279 280 282 283 283 283 281 282 283 282 282 279 281 282 282 281 281 280 281 278 278 277 279 281 281 281 281 281 281 281 281 281 279 279 278 277 277 274 277 274 274 275 276 280 276 271 270 271 269 269 274 277 280 277 276 278 277 278 278 279 281 278 279 284 286 284 284 284 286 286 286 286 287 287 288 288 287 287 287 288 288
Wind_Speed
15 15 15 15 14 14 14 14 14 14 14 14 14 14 14 13 12 11 10 9 9 8 8 7 7 7 7 7 6 3 2 2 2 5 6 5 8 11 12 11 11 10 10 6 8 8 4 4 5 7 1 3 2 4 1 1 0 3 8 10 10 6 13 4 10 7 16 17 12 7 11 16 14 10 8 9 18 16 16 17 12 14 14 11 8 8 8 10
15 15 15 15 15 15 15 15 15 15 15 15 15 16 15 15 14 13 12 11 10 8 7 7 7 7 6 5 3 1 1 1 3 5 8 7 10 12 12 11 10 9 8 5 8 6 6 5 7 6 2 3 2 3 1 4 2 8 7 8 10 6 4 4 8 17 17 15 15 14 10 12 11 8 4 10 10 11 16 13 10 11 12 11 11 11 9 11
15 16 16 16 16 16 15 15 15 15 15 15 15 15 15 15 14 13 12 11 10 8 7 7 7 6 6 5 2 1 2 2 1 8 7 10 12 13 11 10 9 7 5 5 3 4 5 6 5 5 0 2 1 6 5 5 4 1 5 10 3 6 9 7 11 11 14 22 17 15 12 14 11 10 8 13 13 15 14 6 9 11 10 11 11 12 10 11
15 15 16 15 16 15 15 15 15 15 15 14 14 14 14 14 14 13 12 11 10 8 7 8 7 6 5 3 2 1 2 4 3 5 6 12 14 13 12 9 7 3 2 2 1 3 2 3 4 3 2 3 3 1 8 4 5 3 5 7 7 6 9 7 12 16 17 16 18 16 15 17 12 9 8 15 17 12 8 8 7 7 8 9 9 10 10 11
15 15 15 15 15 16 16 16 17 16 16 16 15 14 13 13 13 12 12 11 11 9 8 7 7 5 4 4 3 3 1 4 4 3 7 13 14 12 12 8 3 2 2 3 2 1 3 3 3 1 2 5 4 6 3 5 4 6 5 6 12 11 15 11 14 16 17 15 20 15 14 13 10 18 16 9 11 6 5 6 6 7 7 7 8 9 9 10
14 15 15 16 16 17 17 17 17 17 16 15 14 13 12 12 12 13 13 12 11 10 8 7 5 3 4 3 3 4 4 2 5 7 10 14 13 11 10 4 3 0 2 1 3 2 3 3 3 4 4 4 9 9 5 2 3 6 4 5 5 10 16 9 14 14 16 15 15 14 11 13 15 14 14 18 14 7 6 6 6 7 7 7 7 7 10 12
15 15 16 17 17 17 17 17 17 17 16 16 14 13 12 12 12 13 12 12 10 9 7 6 3 3 4 3 1 7 6 3 6 6 12 14 13 9 6 1 1 2 3 3 1 1 3 2 3 4 4 3 1 4 4 6 1 8 8 9 12 14 18 13 13 12 13 17 17 15 15 15 12 16 9 17 10 9 7 7 7 7 7 8 9 10 11 10
15 16 16 17 17 17 17 17 17 17 16 16 15 14 13 13 13 12 13 11 10 8 5 3 1 2 4 1 1 3 7 7 9 5 12 13 10 8 3 3 2 2 2 3 2 0 2 2 5 2 4 6 6 8 10 13 10 12 11 11 15 15 16 15 15 16 19 19 18 19 20 15 15 12 12 11 10 9 8 7 7 7 7 8 9 10 10 10
15 16 16 17 17 17 17 17 17 16 16 16 15 14 14 13 13 12 12 11 8 7 3 2 2 3 1 2 2 1 7 8 3 9 10 9 7 5 3 2 3 4 1 1 2 1 3 2 1 3 4 4 3 11 7 12 6 8 15 13 15 16 17 17 18 16 17 12 16 23 17 14 15 15 18 9 8 7 7 8 8 7 9 8 9 10 11 11
15 16 16 17 18 18 17 17 17 16 16 16 16 15 14 13 13 12 11 10 6 5 2 1 2 0 1 2 2 4 5 3 3 8 10 6 5 3 6 4 1 3 3 2 1 1 2 2 3 1 2 7 2 5 2 3 11 16 19 19 21 17 16 12 18 15 13 13 12 22 14 12 8 2 6 7 6 5 6 7 7 7 9 9 8 8 9 10
16 17 18 18 18 18 18 17 17 17 17 16 16 15 14 13 13 12 11 8 3 1 1 0 1 4 2 1 7 6 1 2 4 8 10 6 6 6 6 4 2 1 1 1 1 3 3 2 0 1 2 4 7 6 2 12 21 20 23 23 20 17 15 14 16 17 14 12 13 24 19 16 11 12 7 6 5 5 6 6 6 7 7 8 8 9 9 9
16 17 18 18 18 18 18 18 17 17 17 17 16 15 15 13 13 12 11 7 1 1 1 1 2 3 3 3 7 6 1 3 2 8 6 7 5 4 4 2 1 1 2 1 1 0 0 3 2 3 2 7 8 15 15 20 20 23 28 21 18 16 14 7 7 6 9 14 13 14 20 17 15 6 6 5 4 5 6 6 6 6 6 7 7 7 8 8
17 17 17 18 18 18 18 18 17 17 17 17 16 15 14 14 11 11 10 3 2 2 3 2 2 1 2 2 5 3 0 1 2 7 9 4 1 3 3 3 3 2 3 1 2 1 1 1 2 1 2 3 10 4 13 18 20 20 17 19 17 14 11 8 5 6 7 5 4 7 5 4 6 6 4 3 3 3 5 6 5 4 5 6 6 6 7 7
17 17 18 17 17 18 17 17 17 16 17 18 18 16 14 13 9 10 6 1 3 4 6 5 0 1 1 3 3 1 1 3 4 11 13 6 1 3 4 5 4 4 3 4 2 0 1 1 1 2 3 2 7 18 18 14 15 15 16 13 11 13 5 5 4 2 6 2 5 6 4 4 4 3 4 2 3 3 5 4 5 5 5 4 5 5 6 8
17 17 17 17 17 18 17 17 17 17 16 17 18 16 12 10 10 7 4 2 5 3 6 1 4 2 4 3 1 1 4 6 12 14 10 8 5 0 5 4 5 5 3 3 1 1 3 2 3 1 6 1 17 16 16 14 12 15 15 11 8 9 5 5 6 7 4 3 4 8 8 5 4 4 3 2 3 2 4 3 5 5 5 5 4 5 6 6
17 17 17 17 17 18 17 17 17 16 15 15 16 15 10 7 7 4 4 3 3 4 3 0 6 2 5 7 5 3 2 15 13 10 6 5 3 3 3 3 1 2 2 2 1 2 1 2 4 1 11 14 17 16 16 14 11 11 7 15 13 12 10 9 6 5 4 5 7 5 7 8 2 4 3 2 3 2 3 3 4 4 5 4 5 4 4 4
17 17 17 17 17 17 17 16 17 17 15 15 15 10 5 5 9 6 6 4 3 3 6 5 2 2 4 2 3 10 11 8 6 7 9 6 5 4 3 2 2 1 1 2 1 3 5 2 0 3 3 13 11 15 17 11 13 10 10 13 13 17 14 8 5 8 2 2 8 12 13 5 8 6 4 4 3 2 3 3 4 4 4 3 3 3 4 5
18 17 17 17 18 17 16 16 17 16 16 15 10 4 3 3 7 10 2 2 0 1 3 2 2 2 5 3 11 12 11 5 8 8 5 4 2 6 3 3 1 2 2 5 6 4 4 4 3 11 3 2 4 11 12 17 16 17 16 15 13 10 7 10 7 2 10 11 15 12 15 11 8 6 5 4 3 3 3 2 3 3 3 3 3 4 5 5
19 18 17 17 17 16 16 16 16 15 15 13 4 2 2 1 0 6 6 4 4 4 5 10 10 4 5 12 8 9 10 6 5 6 9 7 4 2 1 1 1 2 4 7 2 1 2 5 6 10 11 8 7 2 3 2 12 16 18 17 17 11 7 7 6 4 8 13 11 9 11 11 8 7 5 3 3 2 2 2 2 2 2 2 3 3 3 3
20 19 18 17 16 16 16 15 13 13 12 7 1 2 2 2 1 1 8 10 9 8 8 1 1 3 7 5 7 9 7 2 4 9 9 4 4 2 3 4 2 3 6 7 2 4 5 9 10 10 8 2 4 2 1 2 14 15 17 16 13 15 11 10 8 5 3 12 12 11 13 12 9 6 4 3 3 2 2 2 2 1 2 2 2 2 2 2
20 21 19 17 16 15 16 14 9 12 5 1 0 2 2 4 1 3 2 3 2 2 1 4 2 2 5 5 2 8 7 7 2 11 9 2 1 3 3 2 5 7 3 3 2 1 2 9 4 5 3 2 3 3 3 13 16 18 17 15 13 12 10 6 5 3 3 4 6 7 12 9 7 5 3 2 3 2 1 1 1 1 1 1 0 1 1 2
20 20 20 18 16 15 15 12 8 10 2 1 2 3 2 2 1 2 1 2 1 1 3 2 1 3 2 3 1 2 4 4 10 15 9 5 3 2 4 2 5 8 2 1 5 7 7 7 5 6 4 1 5 2 13 19 17 15 14 13 13 11 12 10 9 7 5 10 6 8 10 7 6 3 2 1 0 1 1 1 1 0 1 1 1 1 1 1
19 19 20 20 18 15 14 8 6 9 3 4 4 4 4 2 2 2 1 3 3 1 2 1 1 9 7 3 1 3 5 13 6 13 13 7 2 6 2 5 6 4 4 3 9 10 10 3 8 7 4 2 4 9 14 16 14 14 11 10 10 10 8 7 7 9 7 2 11 8 9 6 3 2 1 1 1 0 1 1 1 1 2 2 2 2 2 2
19 18 19 19 19 17 13 4 3 4 6 3 5 3 2 3 2 2 0 1 2 2 3 2 1 8 8 8 4 5 4 6 5 15 11 6 5 4 2 7 11 8 9 11 13 11 7 6 3 1 4 10 11 15 11 14 12 8 11 9 11 6 8 9 7 13 17 15 10 9 8 5 1 2 3 3 1 2 3 3 4 4 3 2 2 3 4 4
17 18 17 18 18 17 14 2 3 3 2 2 4 2 5 3 2 3 1 1 1 4 4 2 2 5 6 3 3 2 2 1 8 3 6 6 1 1 4 2 2 7 6 3 11 11 12 9 2 1 8 11 12 8 6 13 13 8 5 3 14 15 18 19 16 13 8 8 4 1 5 3 3 3 4 3 2 5 3 4 6 5 5 4 4 4 4 4
18 17 17 16 16 18 10 1 2 2 1 4 1 2 2 2 1 3 1 2 3 5 2 10 2 10 0 10 9 2 5 9 5 6 4 6 4 2 3 4 3 8 4 11 10 5 4 9 2 5 9 4 10 8 2 3 15 11 3 1 16 18 20 15 12 9 8 7 4 2 2 4 2 5 6 4 4 6 4 7 7 6 5 5 5 6 6 5
18 18 17 16 13 15 2 2 2 3 1 1 1 1 1 1 1 1 2 0 3 7 6 6 5 5 3 7 8 4 2 3 7 6 12 9 4 2 3 4 3 3 1 1 3 5 7 9 5 8 6 5 8 9 3 4 11 6 2 6 5 22 15 14 9 5 8 7 4 4 2 3 4 5 3 1 3 6 8 9 10 7 6 6 7 7 6 5
19 17 17 15 9 9 2 1 1 2 3 2 1 1 0 1 1 2 0 2 5 6 3 6 3 2 6 9 7 10 1 9 3 12 8 10 5 11 9 12 11 10 3 4 9 1 5 7 10 8 9 6 6 1 5 2 7 9 6 7 4 2 8 9 7 10 9 8 4 4 10 2 4 2 2 3 5 10 13 13 11 9 8 8 7 7 6 6
18 17 16 13 3 7 4 2 2 4 1 1 2 2 1 2 1 1 1 4 4 2 5 3 3 2 11 8 7 7 4 8 6 4 11 5 14 2 12 13 17 20 17 12 8 4 4 6 5 3 4 7 2 3 2 3 14 6 10 8 4 5 2 4 11 10 5 3 4 5 7 2 5 5 6 3 6 11 14 12 9 8 8 7 7 8 7 6
19 16 13 11 0 0 2 0 4 1 1 2 3 3 2 1 2 2 3 4 2 4 6 4 5 10 9 9 9 12 11 5 1 6 6 5 10 10 6 4 8 15 13 14 14 6 1 1 3 4 6 3 4 4 1 6 17 15 13 11 8 8 9 9 7 7 4 3 3 4 5 4 3 7 9 9 9 6 5 4 3 4 7 8 8 7 7 7
18 15 11 7 4 2 2 2 2 1 2 2 3 4 1 2 3 3 4 1 1 2 2 3 6 6 11 12 6 11 6 7 9 9 8 8 10 11 8 3 6 10 11 10 9 7 7 6 3 3 4 3 4 14 10 7 14 11 8 10 11 9 9 7 4 1 5 5 4 3 4 4 4 3 3 6 3 1 3 6 7 8 9 9 8 8 9 9
16 11 7 5 1 1 3 2 1 3 2 1 2 2 2 1 3 7 2 5 0 5 3 7 2 5 9 3 2 9 6 3 7 8 6 4 9 11 11 5 5 6 8 6 5 6 10 7 3 3 2 12 6 13 7 5 2 4 7 6 7 7 7 5 4 6 5 2 3 2 2 2 8 4 3 4 8 5 6 3 3 8 11 13 13 13 11 8
14 5 8 4 1 2 2 1 3 3 3 2 2 0 3 3 5 1 3 4 0 4 2 1 7 10 9 5 8 9 3 8 7 9 2 5 2 7 9 13 3 2 10 1 7 7 6 2 14 12 2 10 7 6 6 8 1 7 7 8 8 9 6 7 2 3 2 2 2 1 2 4 3 3 4 4 4 1 4 7 5 5 9 12 12 11 7 4
10 3 3 2 4 2 2 2 2 4 2 1 2 3 4 9 0 2 2 2 1 3 4 3 9 6 4 7 5 7 3 2 7 5 6 0 7 6 9 14 18 9 6 4 5 3 6 6 9 10 4 10 7 8 4 4 3 4 4 3 2 4 3 8 6 6 4 4 4 2 2 2 4 3 3 4 3 3 3 4 3 4 6 5 5 2 1 5
6 6 5 2 2 3 2 1 2 3 3 3 5 3 7 1 1 1 1 2 3 4 3 3 4 5 2 3 3 5 3 2 8 4 12 9 7 4 7 9 12 7 4 5 3 4 4 5 1 3 3 7 6 5 3 2 5 3 1 2 1 2 3 3 2 2 4 5 3 3 3 2 2 2 2 2 3 5 2 3 3 5 3 4 5 5 5 6
4 1 2 2 3 3 1 1 1 2 2 1 7 7 6 0 1 1 2 1 1 4 8 6 2 2 2 3 2 6 2 3 9 3 3 8 6 7 6 5 9 11 6 4 2 4 1 8 3 3 3 3 7 4 3 3 2 2 2 1 3 3 3 7 3 3 2 1 3 1 5 4 4 2 3 3 4 4 1 2 3 4 4 4 6 6 6 7
2 1 2 3 3 3 1 2 1 3 2 5 6 5 0 0 0 3 4 4 3 5 2 1 4 4 4 4 4 10 6 3 5 5 5 1 2 10 6 4 1 7 6 4 4 5 5 4 2 3 5 3 3 6 5 4 2 1 2 4 4 1 3 1 3 1 1 2 2 0 2 2 3 1 1 1 0 1 1 2 3 4 4 6 7 6 7 8
1 2 2 4 6 2 2 2 0 2 4 11 9 7 2 1 2 2 2 2 1 2 2 1 0 4 0 1 5 9 13 3 8 3 2 8 2 5 5 5 3 6 6 2 1 1 1 8 1 3 2 2 3 3 2 6 7 3 5 4 2 2 2 2 2 2 3 1 1 1 2 4 4 1 1 3 4 3 0 2 3 6 7 8 7 8 7 7
2 2 2 4 4 1 2 5 1 2 4 10 2 4 0 3 1 0 1 1 2 4 1 3 1 3 2 1 2 1 8 5 6 2 1 4 2 7 6 4 2 6 6 5 0 1 2 2 2 3 4 1 1 2 2 4 5 7 3 4 0 2 2 2 2 1 2 2 1 1 3 1 5 2 0 4 3 3 3 2 4 6 7 6 6 6 6 7
1 1 2 0 5 1 4 3 3 7 8 7 1 1 1 1 1 3 1 2 1 2 2 3 3 1 3 2 3 2 3 4 4 2 3 5 3 2 7 3 5 9 5 4 2 3 0 3 4 2 3 5 1 7 4 5 4 2 1 2 2 4 1 1 2 2 1 2 0 2 2 1 1 2 2 4 4 4 4 5 4 3 4 5 6 7 7 8
1 2 0 2 5 1 4 10 14 10 6 0 3 3 0 1 2 0 0 0 2 1 3 3 3 3 2 2 2 2 2 4 5 3 3 3 5 1 4 6 7 8 7 4 3 6 1 3 3 2 5 6 3 3 2 4 4 3 3 3 3 4 2 2 2 3 2 1 2 1 2 0 2 2 3 3 2 3 3 4 6 5 5 5 5 6 7 7
1 1 2 3 4 5 2 10 5 2 3 2 2 1 2 2 1 2 1 1 2 1 1 1 3 3 1 2 2 3 1 2 2 1 3 4 6 4 4 1 5 3 4 3 3 4 2 2 5 5 2 2 4 2 1 2 3 3 3 1 1 1 1 1 2 1 1 2 1 2 0 1 2 3 3 3 3 3 5 4 6 6 6 6 6 6 5 6
3 1 0 4 4 1 11 7 1 3 4 0 3 2 2 2 1 2 1 1 0 1 1 2 2 1 4 2 1 1 3 2 3 2 2 2 2 3 3 4 3 2 3 2 3 2 2 2 3 1 2 2 2 1 2 2 2 3 1 1 2 1 1 1 1 4 3 0 1 1 0 1 3 1 1 3 4 5 5 5 7 7 6 6 7 6 6 6
1 0 1 1 3 5 2 2 3 1 2 1 1 1 1 0 1 1 1 1 2 2 1 2 1 3 2 1 1 2 3 1 2 2 1 0 2 2 3 6 7 4 3 3 2 1 0 1 1 2 1 0 1 2 2 2 1 1 1 2 3 2 2 2 2 1 2 3 1 0 1 2 3 2 1 2 4 5 6 3 4 7 7 6 6 6 5 6
3 0 0 4 10 4 2 0 6 5 2 3 2 2 1 1 1 1 1 2 0 0 1 2 2 1 1 1 2 0 3 2 1 2 1 1 2 2 1 3 4 3 3 2 3 5 1 1 1 1 3 3 3 3 2 2 2 1 1 0 2 1 1 1 2 0 1 1 2 1 1 2 3 1 3 4 3 4 3 2 3 5 8 8 6 6 6 5
0 1 3 4 7 6 5 1 2 5 8 4 3 0 1 2 2 2 2 2 1 1 3 2 0 1 1 1 1 3 3 5 1 1 1 2 1 1 1 2 2 4 3 4 5 1 3 2 2 1 1 2 2 3 3 3 2 2 2 3 3 0 1 2 2 0 1 4 2 4 2 2 4 5 5 6 4 4 7 5 4 4 5 5 6 6 6 6
1 2 0 1 1 7 3 1 2 1 3 3 2 2 2 2 1 2 1 1 2 1 2 2 0 1 0 1 0 1 1 1 3 1 3 3 2 3 0 1 3 4 3 2 3 2 2 2 2 2 1 2 3 3 4 4 1 1 4 4 3 2 2 1 1 1 5 5 1 1 2 2 1 1 2 3 4 6 6 5 5 4 4 4 6 7 8 8
1 1 1 1 1 3 1 1 1 4 4 1 2 2 2 2 1 1 1 1 0 1 2 1 4 3 1 2 1 1 3 1 2 2 3 1 4 3 1 1 2 7 3 1 1 1 0 1 1 1 1 3 3 3 4 3 2 1 2 1 4 5 3 3 2 2 4 2 1 2 3 3 4 3 3 5 5 7 7 6 6 6 7 7 6 6 7 7
3 2 1 3 1 2 2 1 4 7 6 3 3 1 1 2 2 1 1 0 1 1 1 1 4 3 3 1 1 1 1 1 3 1 1 3 3 4 2 0 3 3 4 2 3 1 1 2 2 1 1 3 3 2 1 2 0 2 3 4 3 4 6 5 2 2 4 4 2 0 3 11 11 10 9 7 1 4 6 5 5 6 7 6 6 6 7 7
2 2 1 3 6 4 1 2 2 1 3 1 2 1 3 3 3 3 0 1 1 0 2 3 1 1 2 1 1 2 2 3 2 2 1 1 1 2 2 2 5 3 5 3 3 2 1 1 2 2 1 2 2 2 4 2 1 3 3 4 4 3 3 5 3 2 2 7 6 5 6 12 7 6 8 5 2 1 4 6 7 7 6 5 6 7 7 7
2 1 3 7 3 1 1 1 0 0 2 0 2 3 2 2 3 5 3 1 2 0 2 3 5 4 1 2 3 4 2 2 3 4 2 1 2 3 2 0 1 6 7 4 5 6 3 1 1 1 0 0 2 4 2 1 1 1 6 6 6 5 4 5 5 7 6 4 2 2 2 5 3 1 4 6 5 5 7 7 7 6 5 5 6 8 8 9
1 1 0 3 4 2 0 1 1 0 1 0 2 6 2 6 5 6 4 1 0 2 2 2 4 1 1 3 3 2 1 1 3 3 4 4 5 5 5 4 3 3 3 3 2 3 3 2 0 1 0 0 1 2 4 5 3 0 1 2 12 8 3 0 4 3 9 4 5 2 1 2 2 0 3 3 4 6 6 5 5 6 6 6 8 8 9 9
Wind_Direction
8 5 2 357 354 351 347 346 344 341 339 342 344 343 341 339 339 336 334 330 320 316 314 311 311 311 318 333 352 1 342 143 73 39 39 26 303 328 335 330 335 336 342 340 354 3 3 6 13 352 205 221 65 177 101 129 27 204 194 195 199 190 195 135 180 160 121 134 144 138 120 117 112 113 105 71 66 76 77 72 70 68 60 50 33 18 352 322
5 3 359 356 352 350 348 345 343 341 340 342 344 343 341 336 337 338 339 335 327 321 315 309 307 311 324 335 37 17 205 223 72 39 39 345 338 338 335 333 333 345 326 344 6 1 343 17 359 338 199 162 292 128 239 148 280 198 191 206 194 186 92 351 94 120 133 131 132 123 122 102 101 110 91 94 66 76 74 57 53 57 43 33 23 13 4 349
4 0 358 354 351 349 347 345 341 339 341 341 341 339 338 334 335 338 341 337 328 326 318 307 316 325 319 354 91 189 249 145 275 25 4 346 338 339 335 342 331 354 336 343 19 344 342 337 329 307 138 143 249 152 229 136 220 334 219 189 143 75 88 74 123 122 123 129 120 107 92 83 84 84 99 100 92 59 52 26 17 31 17 12 7 5 10 11
3 358 356 352 349 347 346 342 339 340 340 341 341 341 335 335 336 341 342 338 330 324 320 321 326 325 341 4 140 185 230 197 43 359 6 339 340 339 337 333 337 330 268 73 65 349 327 274 305 304 162 184 136 235 172 132 224 117 210 202 129 128 103 65 100 112 117 119 115 110 103 80 57 77 117 124 86 59 58 42 34 26 11 9 5 6 13 24
359 356 352 351 348 347 346 344 341 340 340 340 341 339 339 340 343 346 345 339 334 330 329 329 329 331 36 66 162 222 183 239 64 332 357 339 340 333 331 336 324 310 295 121 197 295 311 314 305 307 235 151 148 168 146 117 340 89 48 62 116 107 86 103 104 108 110 109 110 108 92 100 86 46 42 53 91 80 39 31 44 35 23 21 11 10 24 34
356 353 351 350 349 348 346 343 340 338 337 337 338 338 344 346 348 350 348 342 338 340 333 328 332 339 90 123 158 200 229 11 8 359 344 334 331 331 326 350 75 254 246 310 339 342 310 207 243 176 168 160 163 173 133 90 279 127 71 74 86 113 108 109 108 108 115 115 104 92 92 93 83 79 55 63 66 78 56 62 43 33 39 32 31 26 37 39
355 352 350 350 347 346 344 341 339 337 334 333 336 341 344 348 347 348 346 342 342 343 336 326 331 326 148 173 13 45 52 71 357 360 337 323 322 323 331 55 94 287 253 290 320 322 351 251 233 152 149 104 89 119 107 147 120 109 106 106 95 109 106 116 102 104 95 96 93 104 108 94 103 78 57 65 57 57 54 58 54 51 43 39 41 38 44 43
352 351 348 347 346 344 343 340 337 336 332 333 336 340 344 344 344 341 343 343 348 349 342 346 92 341 179 254 259 28 36 359 350 350 319 316 325 323 332 80 35 258 274 352 323 331 316 203 181 142 178 173 157 138 136 106 99 111 105 103 96 90 101 104 100 96 95 93 101 87 76 74 74 88 80 59 46 48 47 41 44 51 55 45 43 44 43 45
350 349 346 344 344 342 341 338 337 333 332 332 332 336 339 339 339 334 338 341 353 360 11 108 138 79 47 106 356 300 23 347 353 324 325 333 335 333 266 195 17 244 114 90 357 47 263 124 194 263 175 135 137 135 170 129 84 109 115 113 104 101 104 109 101 100 103 105 103 87 89 93 100 82 58 60 60 53 49 47 34 50 55 46 45 44 43 45
348 346 345 343 342 342 340 337 336 334 331 330 330 332 334 336 333 330 327 338 358 22 74 127 177 167 279 41 304 33 23 330 329 336 344 338 349 260 55 45 32 177 199 85 270 328 338 38 357 11 350 69 179 114 340 307 120 122 113 108 103 105 104 103 109 106 102 98 105 97 84 67 39 200 86 49 51 69 69 56 38 37 55 52 44 46 45 45
348 346 344 343 341 341 340 338 335 334 330 329 327 329 330 331 330 326 323 333 356 31 45 316 220 220 70 9 32 43 47 322 8 355 350 345 17 20 0 2 1 267 245 99 17 30 68 62 57 313 270 139 130 89 51 109 122 116 111 96 92 92 90 97 100 110 106 84 96 96 83 61 44 55 71 75 72 54 73 67 48 33 48 51 45 47 47 46
349 347 345 342 342 341 339 337 334 329 328 326 326 327 327 328 325 321 321 327 352 173 148 77 111 117 105 82 56 27 354 347 340 0 1 9 43 9 347 326 333 285 257 187 44 289 16 80 225 299 123 147 112 98 108 128 121 124 113 102 108 103 92 75 97 104 119 122 118 97 81 40 34 71 73 86 80 74 77 72 52 39 39 50 51 50 45 43
348 347 345 343 342 342 339 336 332 329 326 324 323 328 326 326 321 315 319 343 268 88 63 114 125 218 209 138 76 118 201 262 331 352 14 20 50 73 41 26 61 48 332 268 119 215 211 143 294 281 0 181 130 145 144 133 127 118 104 119 114 101 78 28 89 104 123 117 306 294 140 58 45 71 79 86 91 81 80 63 58 58 39 50 48 54 50 39
347 347 346 343 341 341 338 335 329 327 326 322 322 326 330 317 317 315 335 84 310 175 91 60 113 147 269 91 134 139 248 240 324 12 11 356 357 34 38 55 61 64 49 73 89 185 220 207 333 68 318 92 116 122 136 137 139 120 124 117 128 118 105 31 16 345 120 10 294 266 133 131 72 79 74 68 94 87 80 63 54 52 50 47 53 59 54 42
347 347 346 344 340 339 337 332 328 323 325 320 319 322 329 313 315 337 58 133 354 207 178 105 25 214 30 77 201 269 233 246 10 6 9 359 359 23 29 11 48 40 67 102 112 236 235 222 218 171 115 114 127 136 133 142 145 131 135 141 139 117 116 87 35 3 137 108 19 101 88 121 128 114 108 94 103 87 84 74 72 58 45 38 43 49 51 50
346 347 346 343 340 338 335 331 325 322 319 318 314 316 313 315 318 44 72 92 19 47 175 301 11 10 85 39 5 291 8 5 357 337 0 357 348 48 3 22 355 67 229 96 197 248 337 44 57 40 124 143 145 142 136 133 149 158 142 149 137 128 140 123 21 8 7 69 29 305 128 125 115 139 113 119 116 120 80 86 77 59 51 38 40 40 46 47
345 346 346 343 339 338 334 331 326 321 320 318 315 304 289 337 352 99 91 68 13 308 63 27 306 244 34 167 245 354 355 329 330 346 359 29 32 359 310 42 35 62 13 161 35 227 6 109 274 104 152 152 152 146 138 150 151 157 157 147 145 138 147 132 96 22 8 153 74 100 114 111 117 132 124 98 96 92 101 74 69 58 43 36 41 43 40 46
342 344 345 343 340 337 334 331 328 323 323 322 321 270 284 10 6 39 141 62 75 37 84 158 164 210 146 26 356 328 321 320 339 325 313 6 343 3 333 44 40 319 280 130 47 22 338 114 259 135 149 133 173 165 163 165 163 156 150 136 130 107 116 120 140 49 86 86 99 92 92 116 123 124 117 120 108 96 79 51 50 56 57 43 32 35 35 38
340 342 342 343 341 338 334 334 329 328 329 321 294 225 218 114 49 99 29 312 48 20 23 3 8 28 350 323 320 320 328 331 275 326 359 5 339 331 37 15 2 272 129 154 51 314 23 106 140 143 151 170 166 163 172 141 147 144 148 140 133 119 98 97 81 60 99 99 90 108 126 130 133 128 127 120 119 121 96 92 57 24 53 38 40 33 38 30
338 339 342 342 343 340 334 335 333 333 344 328 62 193 158 206 112 10 25 40 64 75 122 75 130 273 267 314 331 312 269 224 335 17 9 25 306 285 39 340 102 62 143 134 107 60 284 152 149 153 144 73 4 320 259 254 134 111 117 118 109 100 86 92 98 113 23 72 56 92 112 122 125 129 134 130 137 142 153 139 113 55 31 54 37 26 31 40
339 338 339 341 342 344 337 337 342 341 360 5 39 160 222 155 260 68 46 18 325 340 109 174 146 338 315 304 321 343 359 327 220 19 17 285 327 278 28 323 123 115 56 340 88 288 228 118 42 4 347 322 303 290 257 101 103 106 100 101 102 91 103 69 96 345 40 117 90 108 110 103 110 113 121 156 174 174 160 144 146 122 81 76 76 1 21 27
341 339 337 338 342 344 342 341 355 352 62 33 39 136 86 74 23 7 150 97 266 256 342 318 324 320 229 221 221 110 174 296 17 14 11 336 4 272 28 79 105 108 24 183 152 150 130 107 34 360 327 240 279 196 116 105 102 95 103 119 101 94 98 78 63 64 70 96 119 132 111 98 96 101 104 141 249 62 51 313 342 340 148 182 254 254 288 262
343 341 338 336 338 341 346 347 35 25 31 16 78 95 95 76 327 306 260 116 138 93 261 218 242 10 18 145 247 185 4 32 338 6 1 338 48 45 305 108 79 88 105 144 154 140 122 57 1 332 271 103 72 91 110 106 98 106 116 114 118 143 136 115 42 62 42 104 142 146 111 98 89 54 133 190 292 326 228 236 239 253 232 230 233 271 252 241
343 341 339 336 334 339 341 11 75 38 42 39 61 34 5 359 13 325 77 31 19 201 199 164 63 22 17 1 26 12 346 33 4 353 359 12 39 300 42 66 89 71 87 79 71 73 56 357 9 179 255 133 105 113 120 113 116 108 124 115 126 130 68 100 115 99 90 76 105 125 90 112 121 186 181 184 195 251 216 211 230 217 239 247 273 262 255 270
343 342 341 338 334 332 337 305 48 46 231 96 57 1 324 345 332 344 320 167 168 34 145 166 183 62 352 224 326 260 324 128 38 351 353 14 9 319 65 259 12 60 61 21 77 58 33 8 318 155 134 113 111 109 100 108 113 92 38 107 121 113 111 114 131 119 96 92 7 216 130 212 164 231 220 158 213 232 213 241 239 229 218 214 234 248 250 255
342 343 343 340 338 328 319 222 73 168 137 61 3 326 354 356 20 326 11 84 44 333 267 21 268 21 178 353 345 0 266 53 346 3 332 14 234 0 204 62 9 104 66 61 70 65 355 360 5 95 105 92 105 96 42 310 126 127 114 2 132 126 124 138 154 124 125 129 160 132 230 152 138 216 212 210 237 259 227 238 245 224 220 217 223 221 222 224
343 342 343 345 345 334 267 16 118 197 134 75 177 293 40 54 290 327 253 251 53 7 9 327 325 29 8 332 317 235 49 17 307 8 15 14 16 267 70 79 125 58 70 185 121 44 335 7 38 63 90 111 116 108 17 340 117 88 74 117 149 129 138 152 160 96 94 90 152 190 319 140 169 212 85 94 269 264 261 242 229 217 214 221 224 218 215 216
342 343 342 346 14 11 58 101 330 36 55 73 173 134 326 166 170 258 257 71 24 319 9 334 30 308 54 321 337 64 124 275 359 2 357 336 299 76 66 70 69 55 23 130 86 32 344 30 16 42 73 54 55 3 313 47 70 119 136 137 131 25 128 160 120 109 130 138 94 24 342 172 170 128 95 145 230 239 239 234 223 208 210 219 222 225 220 224
342 342 342 348 53 70 50 64 49 60 90 86 153 172 114 215 239 149 54 78 265 36 213 31 132 39 348 315 55 30 12 357 50 308 316 264 25 282 78 65 78 68 41 74 99 91 34 33 5 345 46 71 9 319 321 52 97 105 112 90 92 114 89 122 101 114 157 192 116 16 349 256 160 131 176 180 252 238 228 227 220 208 207 211 220 219 218 217
340 344 343 338 152 276 40 110 51 86 220 157 165 178 171 222 233 36 0 51 286 2 39 276 21 313 326 351 32 16 31 12 84 295 2 56 10 20 61 310 64 75 73 63 70 67 118 301 289 25 27 28 42 58 98 80 104 134 129 127 136 118 88 69 83 120 127 171 76 14 349 331 220 169 192 181 218 227 219 214 200 197 202 214 224 224 215 216
340 344 350 343 18 12 267 78 68 135 151 193 179 115 179 39 70 105 61 288 4 279 286 32 351 348 6 8 13 350 43 19 358 344 24 354 18 32 356 136 333 85 73 61 67 75 61 45 32 23 355 296 230 78 47 78 119 146 140 133 106 88 98 85 79 121 183 182 77 29 353 334 228 133 200 206 65 140 230 224 205 205 202 204 218 222 222 219
340 349 30 42 19 298 4 36 99 163 184 196 208 103 207 147 47 56 130 313 318 359 8 326 21 346 325 289 344 357 350 342 34 25 34 359 55 44 17 54 321 88 43 38 70 53 41 25 331 33 76 32 353 102 108 119 163 171 150 143 110 115 137 122 156 175 197 174 67 21 313 240 243 294 99 188 216 218 226 238 208 205 199 196 208 214 214 210
339 27 83 47 330 28 47 89 143 176 184 223 116 247 54 91 45 305 271 336 274 330 3 241 294 331 302 281 20 346 298 41 301 32 295 15 88 104 88 43 343 284 110 215 85 60 24 325 25 344 311 12 357 125 131 118 97 149 145 128 123 138 144 147 106 6 20 76 64 21 20 273 342 287 168 194 188 233 253 239 257 256 222 207 207 209 200 186
349 144 123 64 76 34 349 147 174 173 160 108 236 48 65 61 148 78 271 317 319 12 282 336 315 303 330 49 353 329 42 98 11 1 5 284 36 24 357 27 18 359 51 88 76 27 121 97 9 354 40 344 12 32 6 71 79 36 352 335 127 134 155 154 172 175 167 106 104 65 230 214 198 101 83 85 49 349 304 291 282 295 294 326 347 0 220 216
72 68 115 134 117 60 41 142 159 215 91 227 52 67 74 151 220 254 308 307 311 280 302 324 309 315 40 57 348 25 5 41 38 345 28 35 28 32 2 343 5 358 278 96 17 71 57 69 328 290 277 313 7 353 24 345 81 37 338 288 204 78 327 96 52 33 121 127 137 182 256 350 300 63 1 325 291 275 267 268 238 239 254 264 263 245 232 229
166 81 222 51 19 29 177 114 231 279 271 82 83 57 58 278 9 108 25 294 331 338 313 306 203 7 15 11 183 18 336 7 359 0 49 52 64 45 345 359 7 1 356 50 296 105 167 53 336 311 228 2 13 1 43 302 144 166 243 69 32 331 114 120 111 51 333 296 135 26 276 222 252 203 268 297 297 270 255 248 239 233 222 237 249 243 237 234
56 242 64 354 43 6 193 148 190 257 292 81 72 67 93 353 10 271 7 358 346 305 305 359 1 17 356 346 335 348 349 289 15 360 32 248 61 26 5 7 347 3 31 334 82 341 107 132 355 345 21 18 15 10 348 36 296 128 113 114 101 9 327 282 138 194 239 201 122 244 281 306 310 168 175 188 262 27 280 277 263 248 235 241 238 236 233 234
43 60 125 46 345 6 91 148 321 287 51 68 55 92 259 67 61 309 349 337 245 270 321 38 111 325 194 317 9 360 330 10 357 3 71 1 102 323 5 349 21 33 350 297 352 36 21 106 74 247 325 290 49 357 235 72 34 357 87 116 238 132 168 46 129 150 156 144 68 175 287 265 256 320 109 35 15 36 31 223 243 247 237 241 245 245 246 248
75 143 38 0 344 98 142 172 226 2 80 65 32 92 315 286 6 27 355 338 245 283 342 22 353 28 313 54 289 168 346 46 324 23 35 2 36 24 44 323 303 360 3 334 331 46 273 105 128 170 209 149 198 283 63 343 73 67 137 107 230 304 31 121 11 354 308 130 168 123 269 110 183 274 296 293 318 317 315 257 243 249 246 244 244 248 251 249
165 130 30 357 334 126 143 219 96 46 53 76 160 71 216 320 328 292 259 273 350 314 20 351 5 41 33 34 352 359 2 36 17 359 55 343 53 59 26 19 341 318 346 328 76 269 337 296 103 90 186 203 55 12 35 349 346 37 178 96 98 37 310 74 81 8 338 142 72 129 146 104 85 154 237 283 320 321 305 298 300 273 263 256 251 250 248 248
276 100 251 45 342 195 245 45 39 27 72 147 29 117 301 301 333 254 134 247 257 289 356 34 350 39 339 297 73 351 3 32 16 39 25 49 3 357 74 15 346 329 326 251 26 7 3 20 91 331 40 38 69 30 330 343 348 339 336 33 22 137 148 192 83 160 14 279 186 142 124 5 74 139 230 293 305 288 281 270 282 284 281 268 256 250 250 256
89 55 344 27 11 155 101 56 39 3 85 76 76 136 49 203 279 22 73 121 263 333 318 108 59 67 18 35 350 357 9 32 359 56 19 54 18 31 12 63 349 275 321 45 15 356 359 87 68 61 31 44 6 18 346 276 267 331 304 15 12 6 328 306 129 172 118 96 317 318 74 122 94 184 218 260 285 276 283 271 271 281 288 300 304 300 293 277
43 104 91 7 356 292 58 75 82 51 64 183 270 304 275 348 342 304 353 359 304 263 349 59 350 354 58 338 317 25 333 62 355 40 351 338 297 354 323 348 328 256 260 96 206 62 225 68 90 49 234 255 238 138 165 329 261 244 149 142 224 251 325 295 6 141 139 220 208 199 92 148 141 156 208 276 285 292 282 261 272 290 300 303 300 300 297 296
141 358 348 167 33 164 81 114 102 57 91 315 56 129 37 236 337 24 19 340 5 19 62 52 196 31 70 339 330 25 310 88 29 5 101 240 30 51 26 356 337 11 341 26 336 28 280 312 130 131 103 141 178 189 188 188 228 289 334 59 2 32 59 45 90 305 117 219 342 232 139 177 129 96 207 254 277 283 279 261 233 272 291 291 296 293 285 288
110 273 307 317 7 38 86 320 130 132 155 139 138 69 344 123 222 3 316 43 262 56 191 52 34 287 80 348 58 262 356 3 117 33 324 279 320 91 181 6 338 24 4 322 345 295 350 70 303 158 138 149 164 179 174 192 190 110 346 344 242 182 153 243 136 204 239 108 102 227 145 65 78 244 241 250 284 287 252 239 244 245 274 287 292 291 293 293
41 99 327 9 13 45 78 15 54 123 132 163 87 173 133 90 113 172 220 87 99 149 7 132 154 270 138 223 46 13 30 15 22 92 357 350 329 301 43 327 24 4 345 66 18 23 111 102 36 339 321 46 52 55 13 32 106 206 184 204 180 262 2 305 321 174 326 145 198 241 317 355 261 205 228 228 216 254 300 295 282 276 266 264 273 286 297 304
10 89 326 115 337 44 73 29 75 78 141 217 107 179 87 99 317 85 225 336 131 327 88 36 305 229 10 234 108 110 10 340 21 117 21 321 298 293 339 8 280 338 339 134 16 96 118 111 37 115 339 33 359 33 7 339 130 147 147 199 180 199 201 268 252 20 121 141 188 165 176 232 287 105 213 197 233 275 283 286 295 287 289 296 299 296 293 286
112 179 80 299 119 153 142 37 94 91 59 47 91 1 123 123 115 121 112 88 343 304 293 174 58 49 330 19 163 100 360 31 21 29 331 183 294 312 300 165 24 349 320 102 343 285 341 96 358 318 63 344 333 316 344 356 13 349 259 182 191 206 187 180 242 202 196 260 295 79 169 228 252 231 243 263 285 287 290 295 298 299 290 284 281 283 286 288
50 117 111 297 119 338 357 83 111 110 85 95 114 132 142 166 127 46 30 254 145 53 299 55 353 4 354 292 281 107 274 22 17 142 336 338 22 320 8 329 164 19 20 64 22 42 131 76 126 68 116 49 31 2 290 234 199 279 228 231 227 186 216 240 277 281 241 261 30 248 245 262 274 286 283 287 305 274 280 295 288 276 272 283 289 283 286 295
201 154 120 6 78 102 1 37 90 149 90 215 103 289 138 166 133 161 54 288 90 24 297 72 130 37 351 131 248 69 27 41 22 37 85 258 279 20 39 45 320 346 24 40 338 271 303 91 111 203 174 47 50 79 60 65 99 287 243 212 217 222 265 245 274 286 15 292 258 249 274 287 278 243 264 292 314 268 277 273 271 278 284 282 279 281 286 291
79 354 151 133 86 55 108 16 198 69 117 279 103 193 141 210 146 152 95 325 350 78 331 130 144 140 42 43 62 80 51 59 59 64 69 340 47 359 342 55 324 313 354 4 23 327 349 124 98 164 177 85 38 360 25 119 357 234 279 241 191 172 223 205 204 207 188 207 92 147 237 253 247 194 272 267 266 251 256 266 282 288 289 289 287 295 301 300
125 107 12 96 94 304 301 61 1 269 119 330 86 167 178 178 141 159 103 150 137 7 318 128 148 110 55 60 50 64 23 99 74 67 79 90 87 77 53 66 27 359 337 33 338 13 19 147 138 356 117 13 63 318 329 316 270 269 241 206 184 198 219 305 252 231 225 162 159 197 226 123 113 188 308 261 239 269 269 264 267 266 259 261 274 282 286 285